Location: Lugrin
(46.4033°N, 6.6674°E)
Time: 06:12:38
(UTC+00:00)

Tsikada Rocket - Pass Details

Date: 18 January 2021
Orbit: 958 x 1009 km, 82.9° (Epoch: 06 March)

Event Time Altitude Azimuth Distance (km) Brightness Sun altitude
Exits shadow 04:21:56 30° 188° (S) 1,638 5.1 -28.6°
Drops below altitude 10° 04:24:52 10° 183° (S) 2,682 6.3 -28.1°
Sets 04:27:21 0° 181° (S) 3,625 7.0 -27.7°
